Terminal Aerodrome Forecast
Issued by NWS

Home | Current Version | Previous Version | Text Only | Print | Product List | Glossary On
Versions: 1 2 3 4 5 6 7 8 9 10 11 12 13 14 15 16
000
FTAK31 PAFA 230313 AAA
TAFAOM
TAF AMD
PAOM 230313Z 2303/2324 08014KT P6SM OVC070
     FM230500 07020KT 3SM -SN BLSN BKN025 OVC035
     FM231000 08022G32KT 1/2SM -SN BLSN FG SCT005 BKN012 OVC025=

USA.gov is the U.S. government's official web portal to all federal, state and local government web resources and services.